[[{"header":{"parameterUnit":"m.s-1","parameterCategory":1,"la1":30.2991,"la2":30.254,"lo1":-89.0895,"lo2":-89.0444,"dy":0.0017,"dx":0.0017,"nx":28,"ny":28,"refTime":"2025-04-08T21:00:00:Z","depth":0,"parameterNumber":2,"parameterNumberName":"U-component_of_WINDS"},"data":[0,0,0,0,0,0,0,0,0,0,0,0,0,0,0,0,0,0,0,0,0,0,0,0,0,0,0,0,0,0,0,0,0,0,0,0,0,0,0,0,0,0,0,0,0,0,0,0,0,0,0,0,0,0,0,0,0,0,0.5758,0.5759,0,0.5823,0.5824,0.5825,0.5835,0.5835,0.5834,0.5834,0.59,0.5902,0.5905,0,0,0,0,0,0,0,0,0,0,0,0,0,0.5644,0.5646,0.5758,0.5759,0.576,0.5823,0.5824,0.5825,0.5835,0.5835,0.5834,0.5833,0.5899,0.5902,0.5905,0,0,0,0,0,0,0,0,0,0,0,0,0,0.57,0.5647,0.5758,0.5773,0.5775,0.5823,0.5824,0.5825,0.5835,0.5835,0.5834,0.5833,0.5899,0.5902,0.5905,0.5943,0,0,0.5916,0.5917,0,0,0,0,0,0,0,0,0.5697,0.5704,0.577,0.5772,0.5774,0.582,0.5808,0.5865,0.5836,0.5812,0.5834,0.5833,0.5874,0.588,0.5894,0.5947,0.5949,0.5916,0.5918,0.592,0.5921,0,0,0,0,0,0,0,0.5693,0.5701,0.5784,0.5771,0.5773,0.5776,0.5783,0.5819,0.5847,0.5814,0.5815,0.5823,0.5875,0.589,0.5895,0.595,0.5916,0.5919,0.5921,0.5923,0.604,0.6041,0,0,0,0,0,0,0.5686,0.5698,0.5782,0.5786,0.5732,0.5779,0.5787,0.5806,0.5847,0.5852,0.5823,0.5823,0.5885,0.5891,0.5898,0.5947,0.592,0.5923,0.5925,0.6039,0.604,0.6041,0,0,0,0,0,0,0.5684,0.5694,0.5779,0.5742,0.5753,0.5782,0.5804,0.5808,0.5823,0.5854,0.5859,0.5834,0.5884,0.5893,0.5932,0.5949,0.5924,0.5928,0.6037,0.6039,0.6041,0.6043,0,0,0,0,0,0,0.568,0.5693,0.5707,0.5742,0.5755,0.5812,0.5805,0.581,0.5829,0.5829,0.5865,0.587,0.5884,0.5927,0.5936,0.5953,0.593,0.6036,0.6038,0.604,0.6042,0.6045,0.6047,0,0,0,0,0,0.5676,0.5705,0.5708,0.5718,0.5774,0.5813,0.5821,0.5837,0.583,0.5845,0.5865,0.5869,0.5945,0.5931,0.5941,0.596,0.6035,0.6038,0.604,0.6041,0.6044,0.6047,0,0,0,0,0,0,0.5671,0.571,0.5713,0.5754,0.578,0.5815,0.5835,0.584,0.5869,0.5867,0.5886,0.5894,0.5933,0.595,0.5934,0.6,0.599,0.5994,0.5987,0.5991,0.5993,0.5989,0.5933,0,0,0,0,0,0.5674,0.5703,0.5735,0.5768,0.5781,0.5806,0.5823,0.5834,0.5862,0.5873,0.5896,0.5923,0.5953,0.5973,0.6002,0.6044,0.6053,0.6062,0.6065,0.6067,0.6071,0.6096,0.61,0.6049,0.6049,0.6049,0,0,0.5682,0.5707,0.5723,0.5768,0.5789,0.5819,0.5815,0.5846,0.5869,0.5878,0.5917,0.5934,0.5966,0.6007,0.6027,0.6023,0.6087,0.607,0.6071,0.6074,0.6099,0.6103,0.6108,0.605,0.605,0.605,0,0,0.5711,0.5732,0.5763,0.5784,0.5817,0.5833,0.5841,0.5875,0.5887,0.5927,0.5935,0.5962,0.6013,0.6036,0.6054,0.6093,0.6098,0.6102,0.6116,0.6141,0.6145,0.6148,0.6164,0.6169,0.6106,0.6106,0.6106,0,0.5716,0.5761,0.5778,0.5809,0.5829,0.5839,0.587,0.5891,0.5931,0.5945,0.594,0.6006,0.6028,0.6075,0.6085,0.6099,0.6109,0.6098,0.6143,0.6147,0.615,0.6165,0.6171,0.6106,0.6106,0.6106,0.6106,0,0.5767,0.5798,0.5819,0.5858,0.588,0.5912,0.5934,0.5954,0.5963,0.5979,0.602,0.6047,0.6083,0.6095,0.6103,0.6144,0.6141,0.6139,0.613,0.6155,0.617,0.6175,0.6107,0.6107,0.6106,0.6106,0,0,0.5794,0.5843,0.5851,0.587,0.5907,0.5931,0.5963,0.5999,0.6017,0.6044,0.6073,0.6117,0.6116,0.6136,0.6147,0.6168,0.62,0.6164,0.6165,0.6171,0.6248,0.625,0.6256,0.6202,0.6204,0.6204,0.6246,0,0.5829,0.5887,0.5903,0.5952,0.5982,0.5992,0.602,0.6046,0.6063,0.6091,0.6109,0.6141,0.6136,0.6149,0.617,0.6191,0.6215,0.6188,0.623,0.6231,0.6223,0.6263,0.6265,0.6303,0.6251,0.6252,0.6253,0,0.5877,0.5907,0.5959,0.5993,0.6006,0.6031,0.6066,0.6092,0.6122,0.6133,0.6157,0.6167,0.6201,0.619,0.6238,0.622,0.6238,0.625,0.6252,0.6258,0.6244,0.6271,0.6315,0.6321,0.6261,0.6261,0.626,0,0.5894,0.5946,0.5985,0.6,0.6041,0.6059,0.6077,0.6106,0.6127,0.6157,0.6171,0.6204,0.6223,0.6249,0.6267,0.6257,0.6315,0.6304,0.6326,0.6325,0.6338,0.6337,0.6387,0.6348,0.6348,0.6348,0.6347,0,0.5931,0.5963,0.5993,0.6016,0.6053,0.6071,0.6107,0.6125,0.6152,0.618,0.619,0.6216,0.6238,0.6268,0.6282,0.6321,0.6329,0.634,0.6343,0.634,0.6338,0.6352,0.6351,0.6349,0.6349,0.6348,0.6348,0,0.5956,0.5977,0.602,0.6056,0.6065,0.6091,0.6122,0.6145,0.6163,0.6198,0.6207,0.6235,0.627,0.6291,0.6335,0.6345,0.6388,0.639,0.6378,0.638,0.6401,0.6399,0.6462,0.6472,0.6425,0.6425,0.6426,0,0.598,0.6004,0.6043,0.6063,0.6081,0.6112,0.6133,0.6153,0.6175,0.6212,0.6231,0.6267,0.6297,0.6353,0.6377,0.6411,0.6415,0.6434,0.642,0.6416,0.6417,0.6415,0.6419,0.6437,0.6438,0.6438,0.6438,0,0.6019,0.6029,0.6059,0.6093,0.6118,0.6146,0.6174,0.6189,0.6214,0.6238,0.6274,0.6297,0.6343,0.6379,0.6415,0.6434,0.6441,0.6442,0.6449,0.6446,0.6439,0.6444,0.6386,0.6441,0.6441,0.6441,0.644,0.644,0.6045,0.6068,0.6099,0.6133,0.6156,0.6182,0.6207,0.6227,0.6258,0.6297,0.6306,0.6345,0.6375,0.6425,0.6445,0.6476,0.6473,0.6482,0.6485,0.6487,0.6489,0.6433,0.6482,0.6482,0.6482,0.6482,0.6482,0,0.6086,0.6107,0.6138,0.6177,0.6204,0.6207,0.6238,0.6261,0.6294,0.6322,0.6352,0.6394,0.6429,0.6456,0.6492,0.6512,0.6516,0.6521,0.652,0.6525,0.6489,0.648,0.6517,0.6517,0.6517,0.6517,0.6517,0.6517,0.6111,0.6151,0.6164,0.6216,0.6236,0.6274,0.6292,0.6316,0.6339,0.6386,0.6415,0.6432,0.6461,0.6499,0.6532,0.6539,0.6552,0.6557,0.6565,0.6531,0.6527,0.6523,0.6515,0.6559,0.6559,0.6598,0.6599,0.6599]},{"header":{"parameterUnit":"m.s-1","parameterCategory":1,"la1":30.2991,"la2":30.254,"lo1":-89.0895,"lo2":-89.0444,"dy":0.0017,"dx":0.0017,"nx":28,"ny":28,"refTime":"2025-04-08T21:00:00:Z","depth":0,"parameterNumber":3,"parameterNumberName":"V-component_of_WINDS"},"data":[0,0,0,0,0,0,0,0,0,0,0,0,0,0,0,0,0,0,0,0,0,0,0,0,0,0,0,0,0,0,0,0,0,0,0,0,0,0,0,0,0,0,0,0,0,0,0,0,0,0,0,0,0,0,0,0,0,0,-2.2021,-2.2021,0,-2.2043,-2.2043,-2.2044,-2.208,-2.208,-2.2081,-2.2082,-2.21,-2.21,-2.21,0,0,0,0,0,0,0,0,0,0,0,0,0,-2.2007,-2.2007,-2.2021,-2.2021,-2.2021,-2.2043,-2.2043,-2.2044,-2.208,-2.2081,-2.2081,-2.2082,-2.21,-2.21,-2.21,0,0,0,0,0,0,0,0,0,0,0,0,0,-2.202,-2.2007,-2.2021,-2.2042,-2.2044,-2.2043,-2.2043,-2.2044,-2.208,-2.2081,-2.2082,-2.2083,-2.21,-2.21,-2.21,-2.2078,0,0,-2.2099,-2.2099,0,0,0,0,0,0,0,0,-2.2019,-2.202,-2.2039,-2.2041,-2.2043,-2.206,-2.2045,-2.2055,-2.2079,-2.2066,-2.2082,-2.2083,-2.2085,-2.2086,-2.2088,-2.2079,-2.2079,-2.2099,-2.2099,-2.2099,-2.2099,0,0,0,0,0,0,0,-2.2018,-2.2019,-2.2029,-2.2039,-2.2042,-2.205,-2.2053,-2.2047,-2.2069,-2.2067,-2.207,-2.2072,-2.2087,-2.2088,-2.2089,-2.208,-2.2099,-2.2099,-2.2099,-2.2098,-2.2057,-2.2056,0,0,0,0,0,0,-2.2014,-2.2018,-2.2029,-2.203,-2.2033,-2.2049,-2.2052,-2.2053,-2.207,-2.2073,-2.2071,-2.2074,-2.2088,-2.2089,-2.209,-2.2068,-2.2099,-2.2098,-2.2098,-2.2058,-2.2057,-2.2055,0,0,0,0,0,0,-2.2014,-2.2015,-2.2028,-2.2025,-2.2027,-2.2048,-2.2049,-2.2053,-2.2055,-2.2073,-2.2077,-2.2069,-2.2089,-2.209,-2.2082,-2.2069,-2.2098,-2.2098,-2.2059,-2.2057,-2.2056,-2.2022,0,0,0,0,0,0,-2.2013,-2.2015,-2.2007,-2.2025,-2.2027,-2.202,-2.2048,-2.2053,-2.2055,-2.2058,-2.2072,-2.2075,-2.209,-2.2082,-2.2081,-2.2069,-2.2098,-2.206,-2.2058,-2.2056,-2.2024,-2.202,-2.2015,0,0,0,0,0,-2.2013,-2.1995,-2.2006,-2.2007,-2.2018,-2.2019,-2.202,-2.2039,-2.2054,-2.2046,-2.2058,-2.2075,-2.207,-2.2081,-2.208,-2.2068,-2.2061,-2.2059,-2.2057,-2.2026,-2.2021,-2.2016,0,0,0,0,0,0,-2.1972,-2.1997,-2.201,-2.1997,-2.2006,-2.2025,-2.2016,-2.2032,-2.2035,-2.2038,-2.206,-2.2063,-2.2052,-2.2059,-2.207,-2.2049,-2.2068,-2.2066,-2.2045,-2.204,-2.2036,-2.2034,-2.2098,0,0,0,0,0,-2.1962,-2.1962,-2.1983,-2.197,-2.1974,-2.1994,-2.1995,-2.2009,-2.2018,-2.2022,-2.2033,-2.204,-2.2041,-2.2041,-2.2042,-2.2026,-2.203,-2.2017,-2.2013,-2.2009,-2.2007,-2.2001,-2.1996,-2.2048,-2.2048,-2.2048,0,0,-2.194,-2.1954,-2.1952,-2.1962,-2.197,-2.1969,-2.1997,-2.1993,-2.1993,-2.2021,-2.2015,-2.2023,-2.2033,-2.2021,-2.2017,-2.2027,-2.1994,-2.2006,-2.2003,-2.2003,-2.1998,-2.1994,-2.1989,-2.2047,-2.2047,-2.2047,0,0,-2.1901,-2.191,-2.1902,-2.1911,-2.1924,-2.1939,-2.1937,-2.1954,-2.1962,-2.1956,-2.1978,-2.1977,-2.1977,-2.1984,-2.1988,-2.1955,-2.1971,-2.1954,-2.1931,-2.1926,-2.1922,-2.1918,-2.1908,-2.1904,-2.1952,-2.1952,-2.1952,0,-2.1872,-2.1872,-2.1895,-2.1892,-2.1896,-2.1924,-2.1916,-2.1923,-2.1935,-2.1937,-2.1949,-2.1952,-2.196,-2.1952,-2.1944,-2.1945,-2.1945,-2.1953,-2.192,-2.1917,-2.1914,-2.1905,-2.1901,-2.195,-2.195,-2.195,-2.1951,0,-2.1837,-2.1837,-2.1828,-2.1843,-2.1846,-2.184,-2.1862,-2.1863,-2.1878,-2.1891,-2.1886,-2.1897,-2.1903,-2.1902,-2.1914,-2.1896,-2.1902,-2.1917,-2.1936,-2.1907,-2.1899,-2.1895,-2.1947,-2.1948,-2.1949,-2.1949,0,0,-2.177,-2.1801,-2.1797,-2.1806,-2.1824,-2.1824,-2.182,-2.1828,-2.1829,-2.1837,-2.1835,-2.1836,-2.1851,-2.1855,-2.1869,-2.1864,-2.184,-2.1879,-2.188,-2.1873,-2.1823,-2.1813,-2.1808,-2.185,-2.185,-2.1849,-2.1823,0,-2.1736,-2.1733,-2.1755,-2.1745,-2.1747,-2.1775,-2.1771,-2.1782,-2.1795,-2.1798,-2.1811,-2.1812,-2.183,-2.1834,-2.183,-2.1843,-2.183,-2.1845,-2.1849,-2.1849,-2.1847,-2.1804,-2.1792,-2.1766,-2.1819,-2.1819,-2.1818,0,-2.1694,-2.1704,-2.1695,-2.1718,-2.1719,-2.1716,-2.1727,-2.1729,-2.1742,-2.1752,-2.1758,-2.1776,-2.1774,-2.1793,-2.1791,-2.1801,-2.1803,-2.1811,-2.181,-2.1812,-2.1832,-2.1805,-2.1758,-2.1755,-2.1813,-2.1813,-2.1814,0,-2.165,-2.166,-2.1657,-2.1663,-2.1688,-2.1686,-2.1696,-2.1711,-2.1715,-2.1724,-2.1727,-2.1734,-2.1738,-2.1744,-2.1763,-2.1775,-2.176,-2.1779,-2.1768,-2.1768,-2.1764,-2.1764,-2.1718,-2.1763,-2.1764,-2.1764,-2.1764,0,-2.1609,-2.1603,-2.1638,-2.1636,-2.1631,-2.1656,-2.165,-2.1663,-2.1676,-2.1678,-2.1701,-2.1701,-2.1727,-2.173,-2.1745,-2.1742,-2.1743,-2.1751,-2.1756,-2.175,-2.1749,-2.1752,-2.1755,-2.1763,-2.1763,-2.1763,-2.1763,0,-2.1558,-2.1581,-2.158,-2.1605,-2.1612,-2.1607,-2.1628,-2.1628,-2.1643,-2.1645,-2.1646,-2.167,-2.1675,-2.1696,-2.1704,-2.1715,-2.1708,-2.1715,-2.1704,-2.1707,-2.1695,-2.1697,-2.1651,-2.1647,-2.1693,-2.1693,-2.1693,0,-2.1531,-2.1528,-2.1554,-2.1558,-2.1568,-2.1573,-2.1579,-2.1604,-2.1609,-2.1626,-2.1624,-2.1632,-2.1639,-2.1647,-2.1664,-2.1672,-2.1681,-2.1664,-2.1682,-2.1677,-2.1683,-2.1683,-2.1684,-2.166,-2.166,-2.1659,-2.1659,0,-2.1482,-2.1495,-2.1503,-2.1516,-2.1523,-2.1533,-2.1545,-2.1546,-2.1575,-2.1579,-2.1586,-2.1593,-2.1605,-2.1612,-2.1624,-2.1634,-2.1651,-2.1653,-2.1651,-2.1646,-2.1641,-2.1645,-2.1695,-2.1654,-2.1655,-2.1655,-2.1655,-2.1655,-2.1443,-2.1443,-2.1463,-2.1472,-2.1484,-2.1496,-2.1498,-2.1515,-2.1522,-2.1535,-2.1549,-2.1556,-2.1571,-2.1589,-2.1598,-2.1603,-2.1612,-2.1609,-2.1608,-2.1608,-2.1606,-2.1639,-2.1605,-2.1605,-2.1605,-2.1605,-2.1605,0,-2.1397,-2.1412,-2.142,-2.1438,-2.1446,-2.1464,-2.1479,-2.1484,-2.149,-2.1504,-2.1512,-2.1522,-2.1531,-2.155,-2.156,-2.1561,-2.1569,-2.1563,-2.1563,-2.1566,-2.1596,-2.1597,-2.1556,-2.1556,-2.1556,-2.1556,-2.1556,-2.1556,-2.1374,-2.1376,-2.1391,-2.1399,-2.1414,-2.1422,-2.1429,-2.144,-2.1453,-2.1463,-2.1471,-2.1485,-2.1501,-2.1514,-2.1523,-2.1529,-2.1532,-2.1523,-2.1531,-2.1559,-2.1563,-2.1568,-2.157,-2.1523,-2.1523,-2.1501,-2.1501,-2.1501]}]]